Location: Diebersbach
(48.5163°N, 8.0558°E)
Time: 12:51:40
(UTC+00:00)

USA 281 - Visible Passes

Search period start: 22 October 2021 00:00
Search period end: 01 November 2021 00:00
Orbit: 1078 x 1081 km, 106.0° (Epoch: 15 October)

Date Brightness Start Highest point End Pass type
(mag) Time Alt. Az. Time Alt. Az. Time Alt. Az.
22 Oct 5.7 00:56:00 10° NNW 00:56:04 10° NNW 00:56:04 10° NNW visible
22 Oct 5.6 04:17:42 10° NE 04:20:21 13° NNE 04:23:00 10° N visible
23 Oct 5.8 00:04:32 10° N 00:05:11 12° N 00:05:11 12° N visible
23 Oct 5.3 05:09:34 10° E 05:14:16 21° NE 05:18:58 10° N visible
23 Oct 5.9 23:14:11 10° N 23:14:18 10° N 23:14:18 10° N visible
24 Oct 5.5 04:22:59 10° NE 04:25:39 13° NNE 04:28:19 10° N visible
25 Oct 5.8 00:09:52 10° N 00:10:16 11° N 00:10:16 11° N visible
25 Oct 5.2 05:14:52 10° E 05:19:35 21° NE 05:24:17 10° N visible
26 Oct 5.5 04:28:16 10° NE 04:30:57 13° NNE 04:33:39 10° N visible
27 Oct 5.8 00:15:12 10° N 00:15:24 11° N 00:15:24 11° N visible
27 Oct 5.2 05:20:10 10° E 05:24:53 22° NE 05:29:37 10° N visible
28 Oct 5.5 04:33:33 10° NE 04:36:16 13° NNE 04:38:59 10° N visible
29 Oct 5.9 00:20:31 10° N 00:20:32 10° N 00:20:32 10° N visible
29 Oct 5.2 05:25:27 10° E 05:30:12 22° NE 05:34:56 10° N visible
30 Oct 5.5 04:38:49 10° NE 04:41:34 13° NNE 04:44:19 10° N visible
31 Oct 5.2 05:30:45 10° E 05:35:30 22° NE 05:40:16 10° N visible
